STARLINK-31656 (60286 NORAD) Tracking and Keplerian Element Data

This shows tracking and keplerian element data for the satellite.

Feedback or suggestion? Click here.




ElementValue
Catalog60286
NameSTARLINK-31656
Epoch Orbit1302
Epoch Day286.70742237
Epoch Year2024
RAAN274.9613
Inclination53.1594
Eccentricity0.0002009
Argument of Perigee100.6559
Mean Anonmoly259.4668
Mean Motion15.30577408
Decay Rate0.00046055
L11 60286U 24132J 24286.70742237 .00046055 00000+0 15394-2 0 9991
L22 60286 53.1594 274.9613 0002009 100.6559 259.4668 15.30577408 13026



Live tracking and technical data element details for STARLINK-31656 (NORAD 60286). STARLINK-31656 can be tracked NOW for your location showing map with azimuth and elevation plus other details from your city location.







IsCatalogInMostPopularTable: catalog: 60286, numindb: 13
Update: records affected: 1



GetName: 60286 STARLINK-31656

Hit Count: updated at: Thu, 23 Jan 2025 14:51:58 GMT